Other Public Products
Issued by NWS Charleston, SC

Current Version | Previous Version | Graphics & Text | Print | Product List | Glossary On
Versions: 1 2 3 4 5 6 7 8 9 10 11 12 13 14 15 16 17 18 19 20 21 22 23 24 25 26 27 28 29 30 31 32 33 34 35 36 37 38 39 40 41 42 43 44 45 46 47 48 49 50
327
FPUS82 KCHS 222012
OPUCHS

TEST...KCHS/KSAV Gateway Observations...TEST
National Weather Service Charleston SC
400 PM EDT WED MAR 22 2017

NOTE: "fair" indicates few or no clouds below 12,000 feet with no
significant weather and/or obstructions to visibility.

SCZ050-WAZ558-NCZ071-TXZ119-213-PAZ071-DCZ001-FLZ074-172-MI076-
NYZ176-178-MAZ016-IL014-TNZ027-NJZ106-GAZ044-MD014-222100-

...Gateway Observations for Charleston International...

CITY           SKY/WX    TMP DP  RH WIND       PRES   REMARKS
Chas Airport   MOSUNNY   76  42  29 N17       30.08R
Seattle        LGT RAIN  53  39  59 S18G31    29.85R
Charlotte      CLOUDY    61  24  24 E8        30.19F
Dallas DFW     PTSUNNY   84  63  49 S15       30.05F
Dallas Love    PTSUNNY   83  63  50 S14G25    30.07F
Philladelphia  SUNNY     40   7  25 N21       30.27R WCI  30
Wash National  SUNNY     49  11  21 NW17G26   30.28R
Baltimore      SUNNY     46   7  20 NW18G25   30.26R
Miami          MOSUNNY   82  53  36 VRB6      30.06F
Detroit        SUNNY     37   8  30 NE3       30.55F
Newark         SUNNY     36  -4  18 NW25G38   30.23R WCI  24
Laguardia      NOT AVBL
J F K          SUNNY     37  -4  17 NW26G36   30.20R WCI  25
Boston Logan   MOSUNNY   29  -3  25 NW31G41   30.04R WCI  13
Ft. Lauderdale SUNNY     83  56  39 E6        30.04F
Chicago O`Hare MOSUNNY   36  18  48 E9G18     30.55F WCI  29
Chicago Midway MOSUNNY   34  18  52 N8G20     30.56F WCI  27
Houston Bush   MOSUNNY   83  58  42 SW8G18    30.11F
Houston Hobby  MOSUNNY   83  60  45 S9G26     30.11F
Nashville      PTSUNNY   57  20  23 E13G22    30.30F
Atlanta        PTSUNNY   67  44  43 N12       30.14F

$$

GAZ044-118-TXZ119-213-NCZ071-DCZ001-MDZ014-506-PAZ021-071-NJZ106-
NYZ176-178-MAZ106-OHZ011-021-055-MIZ076-KYZ091-ILZ014-INZ047-
MNZ060-ONZ431-222100-

...Gateway Observations for Savannah International...

CITY           SKY/WX    TMP DP  RH WIND       PRES   REMARKS
Savannah Arpt  PTSUNNY   81  50  33 NE9       30.06S
Atlanta        PTSUNNY   67  44  43 N12       30.14F
Charlotte      CLOUDY    61  24  24 E8        30.19F
Dallas DFW     PTSUNNY   84  63  49 S15       30.05F
Houston Bush   MOSUNNY   83  58  42 SW8G18    30.11F
Wash National  SUNNY     49  11  21 NW17G26   30.28R
Wash Dulles    SUNNY     47   8  20 NW17G25   30.28S
Baltimore      SUNNY     46   7  20 NW18G25   30.26R
Philadelphia   SUNNY     40   7  25 N21       30.27R WCI  30
Newark         SUNNY     36  -4  18 NW25G38   30.23R WCI  24
Laguardia      NOT AVBL
J F K          SUNNY     37  -4  17 NW26G36   30.20R WCI  25
Boston         MOSUNNY   29  -3  25 NW31G41   30.04R WCI  13
Pittsburg      SUNNY     37   6  27 N13G23    30.40F WCI  29
Akron          SUNNY     37  13  37 N12       30.45F WCI  29
Cleveland      MOSUNNY   31  11  43 N7        30.56S WCI  24
Cincinnati     SUNNY     41  18  39 NE12G21   30.44F
Columbus       SUNNY     38  16  41 NE8       30.47F WCI  32
Detroit        SUNNY     37   8  30 NE3       30.55F
Chicago O`Hare MOSUNNY   36  18  48 E9G18     30.55F WCI  29
Minneapolis    CLOUDY    37   9  31 S13       30.45F WCI  29
Indianapolis   MOSUNNY   39  16  39 E6        30.47F WCI  35
Toronto Canada MOSUNNY   28   1  31 NW10G18   30.48F WCI  19

$$




USA.gov is the U.S. government's official web portal to all federal, state and local government web resources and services.